SCP
0 0 0 0 0 0 -0 -0 -0 -0 0 0 0 0 0 0 0 0 0 0 -0 -0 -0 -0 -0 -0 -0 -0 -0 -0 0 0 0 0 0 0 -0 0 0 0 0 0 0 0 0 0 0 0 0
0 0 0 0 0 0 -0 -0 -0 0 0 -0 0 0 0 0 0 0 0 -0 -0 -0 -0 -0 -0 -0 -0 -0 -0 -0 -0 -0 0 0 0 0 0 0 0 0 0 0 0 0 0 0 0 0 0
0 0 0 0 0 -0 -0 0 -0 0 0 0 0 0 0 0 0 0 -0 -0 -0 -0 -0 -0 -0 -0 -0 -0 -0 -0 -0 -0 0 0 0 0 0 0 0 0 0 0 0 0 0 0 0 0 0
0 0 0 0 -0 0 -0 0 0 -0 0 0 -0 -0 0 0 0 -0 -0 -0 -0 -0 -0 -0 -0 -0 -0 -0 -0 0 -0 -0 -0 0 0 0 0 0 0 0 0 0 0 0 0 0 0 0 0
0 0 0 0 0 -0 -0 0 -0 0 -0 -0 0 0 0 0 0 -0 -0 -0 -0 -0 -0 -0 -0 -0 -0 -0 -0 -0 0 -0 -0 0 0 0 0 0 0 0 0 0 0 0 0 0 0 0 0
0 0 0 0 -0 -0 0 0 -0 0 -0 0 0 0 0 0 0 0 -0 -0 -0 -0 -0 -0 -0 -0 -0 0 0 0 -0 -0 0 0 0 0 0 0 0 0 0 0 0 0 0 0 0 0 0
0 0 0 -0 -0 -0 0 -0 0 -0 -0 0 0 0 0 0 0 0 -0 -0 -0 -0 -0 -0 -0 -0 -0 -0 -0 -0 -0 0 0 0 0 0 0 0 0 0 0 0 0 0 0 0 0 0 0
0 0 -0 -0 -0 0 -0 -0 0 -0 0 0 -0 0 0 0 0 0 -0 -0 -0 0 0 -0 -0 0 0 0 -0 -0 0 0 0 0 0 0 0 0 0 0 0 0 0 0 0 0 0 0 0
0 0 -0 -0 0 0 -0 -0 0 -0 0 0 0 0 -0 -0 0 0 0 0 -0 -0 -0 0 0 0 0 -0 0 0 0 0 0 0 0 0 0 0 0 0 0 0 0 0 0 0 0 0 0
0 -0 -0 -0 -0 0 0 0 0 -0 0 -0 -0 0 -0 -1 -0 -0 0 0 -0 -0 0 -0 0 0 0 0 0 0 0 0 0 0 0 0 0 0 0 0 0 0 0 0 0 0 0 0 0
0 -0 -0 -0 0 0 0 0 0 -0 -0 -0 -0 -0 -0 -0 0 0 0 -0 -0 -0 0 0 0 0 0 0 0 0 0 0 0 0 0 0 0 0 0 0 0 0 0 0 0 0 0 0 0
0 -0 -0 -0 0 0 0 0 0 -0 -0 -0 -0 -0 -1 -0 0 -0 0 0 0 -0 -0 0 0 0 0 -0 0 0 0 0 0 0 0 0 0 0 0 0 0 0 0 0 0 0 0 0 0
0 0 0 0 0 0 0 0 0 0 0 0 0 0 0 -0 -0 -0 0 0 0 -0 -0 -0 -0 -0 0 0 0 0 0 0 0 0 0 0 0 0 0 0 0 0 0 0 0 0 0 0 0
0 0 0 0 0 0 0 0 0 0 0 0 0 0 0 -0 -0 0 -0 -0 -0 0 0 -0 -0 -0 -0 0 0 0 0 0 0 0 0 0 0 0 0 0 0 0 0 0 0 0 0 0 0
0 0 0 0 0 0 0 0 0 0 0 0 0 0 0 -0 -0 -0 -0 -0 0 0 0 0 -0 0 -0 -0 0 0 0 0 0 0 -0 0 0 0 0 0 0 0 0 0 0 0 0 0 0
-0 0 0 0 0 0 0 0 0 0 -0 -0 0 0 0 0 -0 -0 -0 -0 0 -0 0 0 0 0 -0 -0 0 0 0 0 0 0 0 0 0 0 0 0 0 0 0 0 0 0 0 0 0
0 0 0 0 0 -0 0 0 0 0 0 0 0 0 0 0 0 -0 -0 -0 -0 0 0 0 0 0 -0 -0 0 0 0 0 0 0 0 0 0 0 0 0 0 0 0 0 0 0 0 0 0
0 0 0 0 0 -0 0 0 0 -0 -0 -0 0 0 0 0 -0 -0 -1 -0 0 1 1 0 0 0 -0 -0 0 0 0 0 0 0 0 0 0 0 0 0 0 0 0 0 0 0 0 0 0
0 0 0 0 -0 -0 0 0 0 0 0 0 0 0 0 -0 -0 -0 -0 0 1 1 0 0 0 0 0 0 0 0 0 0 0 0 0 0 0 0 0 0 0 0 0 0 0 0 0 0 0
0 0 0 0 -0 0 -0 -0 0 0 -0 0 0 0 -0 -0 -0 0 0 -0 1 1 1 1 0 0 0 -0 0 0 0 0 0 0 0 0 0 0 0 0 0 0 0 0 0 0 0 0 0
-0 0 0 -0 -0 0 0 0 -0 0 -0 -0 0 0 -0 -0 -0 -0 0 1 1 1 1 0 0 0 0 0 0 0 0 0 0 0 0 0 0 0 0 0 0 0 0 0 0 0 0 0 0
0 -0 -0 0 0 0 0 0 0 0 0 0 0 -0 -0 -0 -0 0 0 1 1 0 0 0 0 0 0 0 0 -0 0 0 0 0 0 0 0 0 0 0 0 0 0 0 0 0 0 0 0
-0 0 0 0 0 0 0 0 0 0 0 0 1 0 0 0 0 0 0 0 0 0 0 0 0 0 0 -0 0 0 0 0 0 0 0 0 0 0 0 0 0 0 0 0 0 0 0 0 0
0 0 0 0 0 0 0 0 0 0 -0 0 0 0 0 0 0 0 0 0 0 0 0 0 0 0 0 0 0 0 0 0 0 0 0 0 0 0 0 0 0 0 0 0 0 0 0 0 0
0 0 0 0 0 0 -0 0 -0 -0 -0 -0 -0 -0 0 0 0 0 0 0 0 0 0 0 0 0 0 0 0 0 0 0 0 0 0 0 0 0 0 0 0 0 0 0 0 0 0 0 0
0 0 0 -0 0 -0 -0 -0 -0 -0 -0 -0 -0 -0 0 0 0 0 1 1 0 0 0 0 0 0 0 0 0 0 0 0 0 0 0 0 0 0 0 0 0 0 0 0 0 0 0 0 0
0 0 0 0 0 0 0 0 -0 0 -0 -0 -0 -0 -0 -0 -0 0 0 0 1 0 0 0 0 0 0 0 0 0 0 0 0 0 0 0 0 0 0 0 0 0 0 0 0 0 0 0 0
0 0 0 0 0 0 0 0 0 0 0 0 0 -0 -0 -0 -0 -0 0 0 0 0 0 0 0 0 0 0 0 0 0 0 0 0 0 0 0 0 0 0 0 0 0 0 0 0 0 0 0
0 0 0 0 0 0 0 0 0 0 0 0 -0 -0 -0 0 0 -0 0 0 0 0 0 0 0 0 0 0 0 0 0 0 0 0 0 0 0 0 0 0 0 0 0 0 0 0 0 0 0
0 0 0 0 0 0 0 0 0 0 0 0 0 0 0 0 0 0 0 0 0 0 0 0 0 0 0 0 0 0 0 0 0 0 0 0 0 0 0 0 0 0 0 0 0 0 0 0 0
Wind_Speed_500mb
2 4 1 3 6 8 4 8 1 4 6 14 37 19 10 4 4 5 18 34 36 48 43 36 31 25 19 15 14 15 16 17 18 20 22 21 19 19 18 16 15 15 15 14 13 12 10 9 8
1 4 6 3 7 5 8 6 10 10 18 43 31 18 4 3 3 18 43 29 41 46 42 37 30 24 19 16 16 17 17 19 21 21 19 17 15 13 12 12 13 13 13 13 13 12 10 9 7
7 5 4 7 5 6 8 9 8 12 45 17 13 12 3 8 11 43 34 33 45 42 39 34 29 24 18 18 18 18 20 22 21 17 13 11 10 9 11 12 11 11 9 8 7 7 8 9 10
7 4 4 7 10 14 13 5 5 11 21 11 28 17 12 10 34 28 36 40 42 42 38 33 27 21 20 19 19 21 23 20 16 11 9 9 11 12 13 13 12 12 12 12 11 12 12 12 12
11 3 6 2 11 11 6 8 12 2 9 16 5 13 19 37 17 31 31 37 39 40 36 31 25 23 21 21 24 24 20 15 11 9 10 11 12 12 12 14 13 13 13 14 15 16 17 15 14
7 5 6 7 9 12 10 16 16 14 21 11 17 8 7 24 32 32 28 32 35 33 33 30 27 26 26 26 25 20 15 10 8 8 9 9 9 9 10 11 13 15 14 14 16 15 13 11 11
11 8 8 6 11 13 11 23 29 25 16 7 20 10 14 46 42 32 31 31 37 34 31 30 30 29 29 28 23 17 11 7 6 6 7 7 5 7 11 14 18 18 18 16 18 17 15 13 10
8 8 7 1 4 9 4 4 30 34 9 36 29 13 16 56 49 39 38 34 32 34 32 31 30 30 31 28 22 15 10 6 3 4 4 4 6 10 14 18 19 19 19 22 20 18 14 13 15
8 8 4 8 8 9 18 10 14 9 23 25 27 7 21 60 59 53 47 40 33 37 33 34 33 33 30 26 21 15 9 2 2 4 5 6 10 15 18 20 18 19 23 22 19 14 14 16 18
8 9 17 13 9 12 11 9 19 9 7 10 27 14 40 67 67 59 54 45 41 43 40 38 37 33 30 26 21 15 9 2 4 6 7 8 13 16 17 19 20 20 17 12 9 11 16 21 25
10 9 11 23 44 28 14 18 32 37 15 42 50 52 70 78 70 62 54 45 33 41 45 44 41 36 31 27 23 20 10 4 6 9 10 10 14 14 14 16 19 18 12 7 8 12 22 28 29
1 18 15 29 48 22 15 21 17 51 44 37 57 71 83 85 79 70 62 57 49 47 44 44 42 38 33 27 23 20 8 3 11 13 13 14 15 14 15 18 19 12 10 7 9 14 24 27 30
9 15 30 47 49 43 18 38 28 62 30 26 63 80 73 84 79 76 66 57 53 53 49 46 42 40 34 30 25 16 11 7 8 13 15 15 13 13 16 20 18 11 7 5 8 13 17 20 28
8 16 25 26 42 24 16 15 35 49 31 49 81 78 79 83 83 80 80 76 66 59 57 50 46 41 38 32 25 22 19 11 8 13 16 15 11 12 16 20 13 10 8 4 3 5 11 16 20
12 11 16 7 11 8 20 9 15 47 55 73 78 79 79 84 84 90 88 86 74 68 62 59 53 47 41 34 31 28 22 17 11 16 14 13 11 12 16 15 10 8 6 5 5 1 4 12 15
10 9 10 12 8 7 8 13 10 59 80 66 75 79 81 82 83 84 86 83 79 75 75 65 60 53 45 40 38 35 30 24 18 17 14 11 14 11 14 13 12 10 8 5 8 8 3 8 8
14 5 6 23 9 8 7 17 13 54 54 55 66 67 82 85 79 82 91 88 81 77 77 72 66 56 47 44 44 38 35 28 22 17 14 10 11 10 10 11 11 12 6 7 7 15 10 8 6
3 7 10 12 13 8 8 14 14 48 51 50 53 73 85 89 90 86 90 89 82 78 79 75 65 60 52 51 46 41 34 32 24 16 11 9 10 10 9 12 9 11 4 9 8 7 1 4 14
2 7 9 12 16 6 13 14 6 25 29 33 54 70 88 99 95 74 75 81 84 82 83 78 72 67 59 61 55 50 47 34 25 14 11 10 8 8 11 7 5 7 4 4 4 6 2 7 5
9 6 17 10 8 7 34 41 17 19 29 26 37 65 92 85 93 79 73 86 88 82 86 84 79 74 68 61 56 51 41 28 23 18 14 9 6 7 8 4 4 9 7 6 6 5 7 12 5
8 9 8 8 6 9 18 22 27 18 19 41 49 64 64 74 96 86 75 82 84 78 88 86 77 69 63 64 54 49 38 35 33 25 17 8 4 5 4 3 4 7 8 6 6 2 9 12 11
7 12 7 4 9 3 9 1 11 12 16 13 26 50 89 99 78 16 37 38 55 65 85 80 76 65 20 53 58 55 47 41 33 22 19 9 6 4 4 2 2 8 12 10 8 7 3 4 11
10 3 6 4 9 8 14 12 14 10 15 16 29 38 55 93 49 20 26 19 23 31 44 64 43 39 65 79 64 55 42 29 28 26 20 10 10 9 10 6 5 8 11 14 15 13 9 6 8
6 5 9 9 5 8 10 12 11 8 12 17 27 51 31 33 38 35 20 17 15 12 30 49 47 39 42 68 60 56 43 41 37 29 26 15 13 13 13 8 7 5 12 13 17 13 11 10 10
16 14 8 10 11 6 6 13 12 13 15 12 14 51 29 13 20 32 24 16 11 37 64 29 84 76 69 74 67 59 50 45 32 28 26 18 14 15 12 7 6 1 8 14 15 15 10 7 7
8 10 10 3 1 8 8 8 10 13 19 14 12 29 28 10 22 33 52 55 64 59 51 55 43 61 65 67 62 57 55 51 39 29 25 16 11 11 10 6 1 2 1 8 11 14 11 11 11
3 10 3 12 6 4 5 6 9 11 17 20 7 10 10 4 13 27 36 41 45 51 55 67 47 54 62 59 60 58 54 53 40 31 26 19 16 14 12 7 2 4 5 4 7 8 9 9 12
12 2 6 8 2 2 7 8 8 12 16 4 7 11 9 3 8 13 23 33 39 48 42 43 45 50 56 64 62 61 51 48 40 36 29 24 20 19 17 10 8 6 8 10 6 7 4 9 9
10 7 13 8 6 9 3 11 12 13 12 12 12 6 2 6 9 16 17 35 38 36 29 31 41 50 49 57 56 53 48 45 45 37 26 25 22 23 20 16 11 10 6 11 10 10 11 7 6
7 6 7 9 4 1 6 11 8 11 15 12 20 13 6 3 5 8 13 23 20 20 24 33 37 44 47 48 51 51 51 47 50 37 29 28 21 22 21 18 15 12 10 3 5 14 16 13 15
Wind_Direction_500mb
297 297 178 239 36 64 257 248 202 243 211 233 160 180 191 40 157 208 148 155 166 172 169 165 165 166 161 154 148 138 128 119 110 104 98 90 80 70 59 51 43 36 31 29 30 29 27 27 23
193 255 284 90 84 32 273 245 223 204 131 114 142 117 23 37 104 146 152 153 169 172 166 166 167 169 169 161 153 142 130 118 109 100 88 76 67 61 49 41 31 25 19 16 10 4 355 352 345
170 222 298 89 117 197 222 224 241 146 142 127 114 104 68 142 154 147 167 167 173 172 167 167 170 175 172 162 153 141 126 117 109 101 92 81 67 57 56 49 49 44 30 20 3 343 327 322 313
152 163 70 89 250 254 216 188 240 139 208 208 128 93 83 348 139 151 156 165 174 171 168 169 171 173 170 162 148 134 126 118 111 99 81 67 73 78 73 61 43 29 10 354 339 322 316 311 297
167 141 59 331 254 269 295 87 89 225 91 103 57 115 122 148 153 147 155 169 175 169 167 169 173 171 164 155 141 135 128 118 99 78 79 94 91 83 55 36 20 5 347 332 317 315 316 320 316
142 124 65 247 265 310 283 165 113 97 97 101 106 74 127 189 178 159 153 160 174 174 171 175 171 166 161 151 143 136 121 107 99 93 94 91 72 42 17 2 347 351 343 330 327 341 350 339 318
148 100 213 245 328 298 323 154 131 124 100 105 143 94 157 166 171 156 154 161 170 175 177 177 170 164 157 152 146 139 135 121 99 85 70 61 26 1 345 343 337 351 345 353 355 2 6 355 336
198 98 155 267 238 282 359 78 136 138 145 159 184 154 172 176 171 162 167 167 173 181 176 177 172 167 162 158 154 155 152 138 68 53 48 12 337 336 334 331 345 348 345 350 357 357 19 37 16
171 69 184 222 186 264 141 20 135 122 139 208 175 223 229 176 175 171 172 173 181 183 178 174 173 168 167 166 168 165 162 147 33 8 2 340 338 333 333 336 343 347 344 352 350 5 22 20 19
138 119 215 213 199 221 249 166 172 149 58 289 193 219 181 181 178 178 179 179 178 179 176 174 173 172 175 177 177 174 171 92 31 333 326 322 325 326 330 336 334 336 343 1 26 17 15 14 8
163 188 220 264 259 268 198 204 170 142 212 205 205 183 176 182 184 188 189 186 164 170 176 178 177 176 179 184 185 182 162 59 358 324 306 304 311 315 324 323 327 343 358 21 36 30 23 16 20
204 245 244 283 293 285 156 163 187 171 214 225 209 190 179 184 189 194 195 192 175 176 182 180 180 180 181 183 185 193 186 22 343 317 293 294 304 312 319 324 332 346 11 46 49 39 38 43 34
203 259 272 281 291 286 224 189 189 206 220 219 187 174 188 191 197 201 198 192 188 183 185 189 185 187 190 192 202 208 216 221 298 304 293 298 303 312 314 326 331 337 23 48 36 57 56 50 46
254 259 282 296 288 274 173 235 166 207 212 182 176 178 193 198 200 201 202 201 198 195 194 197 194 195 199 201 211 221 233 262 300 294 291 302 297 303 317 330 325 337 1 22 19 79 67 59 50
288 324 336 276 302 280 145 86 214 199 184 175 181 184 193 204 205 207 204 203 205 204 200 202 202 202 206 209 213 221 237 265 274 277 285 291 288 300 321 327 312 314 339 341 258 341 68 82 55
6 55 17 284 317 311 125 268 245 177 173 177 183 191 194 205 210 212 215 211 207 207 205 203 205 205 207 212 214 221 232 248 243 262 272 287 280 304 315 318 305 308 303 274 217 225 229 136 73
8 303 325 324 309 252 121 254 185 181 177 177 187 189 201 206 211 215 218 219 215 212 206 204 208 208 211 210 214 222 231 230 235 250 262 273 279 304 313 315 313 347 307 207 162 218 258 223 165
281 343 322 286 296 10 327 278 186 188 185 187 189 196 202 209 215 218 218 217 216 215 210 209 203 206 208 212 217 226 225 228 230 235 265 281 286 294 315 320 338 358 7 185 181 209 142 19 201
293 272 256 260 273 296 329 322 220 182 195 196 204 208 210 213 216 222 222 220 214 212 206 207 205 206 212 216 222 222 221 221 229 226 241 251 276 292 295 333 345 17 34 109 112 242 344 8 182
218 256 287 288 275 141 59 31 26 349 317 282 234 219 220 217 218 219 215 215 215 212 206 205 208 209 214 220 228 226 220 215 227 223 225 220 258 273 291 305 329 16 44 99 130 207 324 5 42
224 194 257 227 311 20 119 58 17 352 306 303 249 239 241 232 228 224 214 212 210 204 205 201 204 206 208 217 220 211 209 210 216 214 206 195 227 252 232 275 15 36 58 89 130 132 333 29 43
2 193 215 88 72 127 27 99 34 332 312 358 337 257 240 232 243 229 218 209 208 212 213 207 211 202 243 251 225 216 214 208 212 211 194 183 176 192 199 203 27 54 52 57 63 90 68 43 66
219 98 17 64 103 99 350 76 284 300 350 349 341 344 255 246 257 235 239 223 207 200 216 229 224 237 238 232 220 221 208 199 206 207 195 194 163 168 146 125 80 78 58 59 67 101 102 98 84
22 57 54 58 69 52 279 119 293 298 281 304 346 1 328 243 237 236 240 206 188 313 313 242 242 246 211 217 221 226 215 203 203 207 205 196 176 161 143 98 66 82 77 80 80 101 104 75 64
58 51 4 14 14 228 228 60 219 267 286 273 292 35 30 172 199 211 219 210 268 281 254 238 245 242 236 216 216 218 222 216 217 217 211 201 187 171 156 116 55 102 79 90 72 84 134 113 76
8 117 140 143 208 266 333 143 246 227 280 270 94 74 54 15 252 243 239 239 249 234 243 225 243 247 219 212 213 217 218 219 222 223 216 209 194 171 167 160 143 273 111 96 97 71 122 127 89
43 41 166 105 359 60 285 272 301 226 251 266 148 130 135 158 230 241 249 244 220 230 226 226 246 233 221 214 212 213 213 226 221 212 217 210 209 209 192 192 223 290 249 173 134 87 85 133 104
96 171 40 11 123 299 299 291 249 200 250 267 167 168 149 104 269 245 252 245 232 244 258 249 239 238 222 213 212 218 221 221 211 213 217 215 221 217 213 222 234 289 248 211 216 147 101 125 109
350 23 51 116 120 159 206 272 220 235 203 226 232 197 93 24 334 279 252 236 264 277 268 244 235 235 229 219 220 223 223 224 219 215 222 225 225 226 224 236 233 261 233 216 215 189 207 211 273
54 97 104 110 238 132 140 270 276 251 178 224 210 179 198 44 11 286 272 260 252 252 235 246 246 241 237 231 227 228 226 223 218 219 225 226 228 225 233 241 247 247 225 250 238 223 211 253 264
Wind_Speed_850mb
2 4 1 3 6 8 4 8 1 4 6 14 37 19 10 4 4 5 18 34 36 48 43 36 31 25 19 15 14 15 16 17 18 20 22 21 19 19 18 16 15 15 15 14 13 12 10 9 8
1 4 6 3 7 5 8 6 10 10 18 43 31 18 4 3 3 18 43 29 41 46 42 37 30 24 19 16 16 17 17 19 21 21 19 17 15 13 12 12 13 13 13 13 13 12 10 9 7
7 5 4 7 5 6 8 9 8 12 45 17 13 12 3 8 11 43 34 33 45 42 39 34 29 24 18 18 18 18 20 22 21 17 13 11 10 9 11 12 11 11 9 8 7 7 8 9 10
7 4 4 7 10 14 13 5 5 11 21 11 28 17 12 10 34 28 36 40 42 42 38 33 27 21 20 19 19 21 23 20 16 11 9 9 11 12 13 13 12 12 12 12 11 12 12 12 12
11 3 6 2 11 11 6 8 12 2 9 16 5 13 19 37 17 31 31 37 39 40 36 31 25 23 21 21 24 24 20 15 11 9 10 11 12 12 12 14 13 13 13 14 15 16 17 15 14
7 5 6 7 9 12 10 16 16 14 21 11 17 8 7 24 32 32 28 32 35 33 33 30 27 26 26 26 25 20 15 10 8 8 9 9 9 9 10 11 13 15 14 14 16 15 13 11 11
11 8 8 6 11 13 11 23 29 25 16 7 20 10 14 46 42 32 31 31 37 34 31 30 30 29 29 28 23 17 11 7 6 6 7 7 5 7 11 14 18 18 18 16 18 17 15 13 10
8 8 7 1 4 9 4 4 30 34 9 36 29 13 16 56 49 39 38 34 32 34 32 31 30 30 31 28 22 15 10 6 3 4 4 4 6 10 14 18 19 19 19 22 20 18 14 13 15
8 8 4 8 8 9 18 10 14 9 23 25 27 7 21 60 59 53 47 40 33 37 33 34 33 33 30 26 21 15 9 2 2 4 5 6 10 15 18 20 18 19 23 22 19 14 14 16 18
8 9 17 13 9 12 11 9 19 9 7 10 27 14 40 67 67 59 54 45 41 43 40 38 37 33 30 26 21 15 9 2 4 6 7 8 13 16 17 19 20 20 17 12 9 11 16 21 25
10 9 11 23 44 28 14 18 32 37 15 42 50 52 70 78 70 62 54 45 33 41 45 44 41 36 31 27 23 20 10 4 6 9 10 10 14 14 14 16 19 18 12 7 8 12 22 28 29
1 18 15 29 48 22 15 21 17 51 44 37 57 71 83 85 79 70 62 57 49 47 44 44 42 38 33 27 23 20 8 3 11 13 13 14 15 14 15 18 19 12 10 7 9 14 24 27 30
9 15 30 47 49 43 18 38 28 62 30 26 63 80 73 84 79 76 66 57 53 53 49 46 42 40 34 30 25 16 11 7 8 13 15 15 13 13 16 20 18 11 7 5 8 13 17 20 28
8 16 25 26 42 24 16 15 35 49 31 49 81 78 79 83 83 80 80 76 66 59 57 50 46 41 38 32 25 22 19 11 8 13 16 15 11 12 16 20 13 10 8 4 3 5 11 16 20
12 11 16 7 11 8 20 9 15 47 55 73 78 79 79 84 84 90 88 86 74 68 62 59 53 47 41 34 31 28 22 17 11 16 14 13 11 12 16 15 10 8 6 5 5 1 4 12 15
10 9 10 12 8 7 8 13 10 59 80 66 75 79 81 82 83 84 86 83 79 75 75 65 60 53 45 40 38 35 30 24 18 17 14 11 14 11 14 13 12 10 8 5 8 8 3 8 8
14 5 6 23 9 8 7 17 13 54 54 55 66 67 82 85 79 82 91 88 81 77 77 72 66 56 47 44 44 38 35 28 22 17 14 10 11 10 10 11 11 12 6 7 7 15 10 8 6
3 7 10 12 13 8 8 14 14 48 51 50 53 73 85 89 90 86 90 89 82 78 79 75 65 60 52 51 46 41 34 32 24 16 11 9 10 10 9 12 9 11 4 9 8 7 1 4 14
2 7 9 12 16 6 13 14 6 25 29 33 54 70 88 99 95 74 75 81 84 82 83 78 72 67 59 61 55 50 47 34 25 14 11 10 8 8 11 7 5 7 4 4 4 6 2 7 5
9 6 17 10 8 7 34 41 17 19 29 26 37 65 92 85 93 79 73 86 88 82 86 84 79 74 68 61 56 51 41 28 23 18 14 9 6 7 8 4 4 9 7 6 6 5 7 12 5
8 9 8 8 6 9 18 22 27 18 19 41 49 64 64 74 96 86 75 82 84 78 88 86 77 69 63 64 54 49 38 35 33 25 17 8 4 5 4 3 4 7 8 6 6 2 9 12 11
7 12 7 4 9 3 9 1 11 12 16 13 26 50 89 99 78 16 37 38 55 65 85 80 76 65 20 53 58 55 47 41 33 22 19 9 6 4 4 2 2 8 12 10 8 7 3 4 11
10 3 6 4 9 8 14 12 14 10 15 16 29 38 55 93 49 20 26 19 23 31 44 64 43 39 65 79 64 55 42 29 28 26 20 10 10 9 10 6 5 8 11 14 15 13 9 6 8
6 5 9 9 5 8 10 12 11 8 12 17 27 51 31 33 38 35 20 17 15 12 30 49 47 39 42 68 60 56 43 41 37 29 26 15 13 13 13 8 7 5 12 13 17 13 11 10 10
16 14 8 10 11 6 6 13 12 13 15 12 14 51 29 13 20 32 24 16 11 37 64 29 84 76 69 74 67 59 50 45 32 28 26 18 14 15 12 7 6 1 8 14 15 15 10 7 7
8 10 10 3 1 8 8 8 10 13 19 14 12 29 28 10 22 33 52 55 64 59 51 55 43 61 65 67 62 57 55 51 39 29 25 16 11 11 10 6 1 2 1 8 11 14 11 11 11
3 10 3 12 6 4 5 6 9 11 17 20 7 10 10 4 13 27 36 41 45 51 55 67 47 54 62 59 60 58 54 53 40 31 26 19 16 14 12 7 2 4 5 4 7 8 9 9 12
12 2 6 8 2 2 7 8 8 12 16 4 7 11 9 3 8 13 23 33 39 48 42 43 45 50 56 64 62 61 51 48 40 36 29 24 20 19 17 10 8 6 8 10 6 7 4 9 9
10 7 13 8 6 9 3 11 12 13 12 12 12 6 2 6 9 16 17 35 38 36 29 31 41 50 49 57 56 53 48 45 45 37 26 25 22 23 20 16 11 10 6 11 10 10 11 7 6
7 6 7 9 4 1 6 11 8 11 15 12 20 13 6 3 5 8 13 23 20 20 24 33 37 44 47 48 51 51 51 47 50 37 29 28 21 22 21 18 15 12 10 3 5 14 16 13 15
Wind_Direction_850mb
297 297 178 239 36 64 257 248 202 243 211 233 160 180 191 40 157 208 148 155 166 172 169 165 165 166 161 154 148 138 128 119 110 104 98 90 80 70 59 51 43 36 31 29 30 29 27 27 23
193 255 284 90 84 32 273 245 223 204 131 114 142 117 23 37 104 146 152 153 169 172 166 166 167 169 169 161 153 142 130 118 109 100 88 76 67 61 49 41 31 25 19 16 10 4 355 352 345
170 222 298 89 117 197 222 224 241 146 142 127 114 104 68 142 154 147 167 167 173 172 167 167 170 175 172 162 153 141 126 117 109 101 92 81 67 57 56 49 49 44 30 20 3 343 327 322 313
152 163 70 89 250 254 216 188 240 139 208 208 128 93 83 348 139 151 156 165 174 171 168 169 171 173 170 162 148 134 126 118 111 99 81 67 73 78 73 61 43 29 10 354 339 322 316 311 297
167 141 59 331 254 269 295 87 89 225 91 103 57 115 122 148 153 147 155 169 175 169 167 169 173 171 164 155 141 135 128 118 99 78 79 94 91 83 55 36 20 5 347 332 317 315 316 320 316
142 124 65 247 265 310 283 165 113 97 97 101 106 74 127 189 178 159 153 160 174 174 171 175 171 166 161 151 143 136 121 107 99 93 94 91 72 42 17 2 347 351 343 330 327 341 350 339 318
148 100 213 245 328 298 323 154 131 124 100 105 143 94 157 166 171 156 154 161 170 175 177 177 170 164 157 152 146 139 135 121 99 85 70 61 26 1 345 343 337 351 345 353 355 2 6 355 336
198 98 155 267 238 282 359 78 136 138 145 159 184 154 172 176 171 162 167 167 173 181 176 177 172 167 162 158 154 155 152 138 68 53 48 12 337 336 334 331 345 348 345 350 357 357 19 37 16
171 69 184 222 186 264 141 20 135 122 139 208 175 223 229 176 175 171 172 173 181 183 178 174 173 168 167 166 168 165 162 147 33 8 2 340 338 333 333 336 343 347 344 352 350 5 22 20 19
138 119 215 213 199 221 249 166 172 149 58 289 193 219 181 181 178 178 179 179 178 179 176 174 173 172 175 177 177 174 171 92 31 333 326 322 325 326 330 336 334 336 343 1 26 17 15 14 8
163 188 220 264 259 268 198 204 170 142 212 205 205 183 176 182 184 188 189 186 164 170 176 178 177 176 179 184 185 182 162 59 358 324 306 304 311 315 324 323 327 343 358 21 36 30 23 16 20
204 245 244 283 293 285 156 163 187 171 214 225 209 190 179 184 189 194 195 192 175 176 182 180 180 180 181 183 185 193 186 22 343 317 293 294 304 312 319 324 332 346 11 46 49 39 38 43 34
203 259 272 281 291 286 224 189 189 206 220 219 187 174 188 191 197 201 198 192 188 183 185 189 185 187 190 192 202 208 216 221 298 304 293 298 303 312 314 326 331 337 23 48 36 57 56 50 46
254 259 282 296 288 274 173 235 166 207 212 182 176 178 193 198 200 201 202 201 198 195 194 197 194 195 199 201 211 221 233 262 300 294 291 302 297 303 317 330 325 337 1 22 19 79 67 59 50
288 324 336 276 302 280 145 86 214 199 184 175 181 184 193 204 205 207 204 203 205 204 200 202 202 202 206 209 213 221 237 265 274 277 285 291 288 300 321 327 312 314 339 341 258 341 68 82 55
6 55 17 284 317 311 125 268 245 177 173 177 183 191 194 205 210 212 215 211 207 207 205 203 205 205 207 212 214 221 232 248 243 262 272 287 280 304 315 318 305 308 303 274 217 225 229 136 73
8 303 325 324 309 252 121 254 185 181 177 177 187 189 201 206 211 215 218 219 215 212 206 204 208 208 211 210 214 222 231 230 235 250 262 273 279 304 313 315 313 347 307 207 162 218 258 223 165
281 343 322 286 296 10 327 278 186 188 185 187 189 196 202 209 215 218 218 217 216 215 210 209 203 206 208 212 217 226 225 228 230 235 265 281 286 294 315 320 338 358 7 185 181 209 142 19 201
293 272 256 260 273 296 329 322 220 182 195 196 204 208 210 213 216 222 222 220 214 212 206 207 205 206 212 216 222 222 221 221 229 226 241 251 276 292 295 333 345 17 34 109 112 242 344 8 182
218 256 287 288 275 141 59 31 26 349 317 282 234 219 220 217 218 219 215 215 215 212 206 205 208 209 214 220 228 226 220 215 227 223 225 220 258 273 291 305 329 16 44 99 130 207 324 5 42
224 194 257 227 311 20 119 58 17 352 306 303 249 239 241 232 228 224 214 212 210 204 205 201 204 206 208 217 220 211 209 210 216 214 206 195 227 252 232 275 15 36 58 89 130 132 333 29 43
2 193 215 88 72 127 27 99 34 332 312 358 337 257 240 232 243 229 218 209 208 212 213 207 211 202 243 251 225 216 214 208 212 211 194 183 176 192 199 203 27 54 52 57 63 90 68 43 66
219 98 17 64 103 99 350 76 284 300 350 349 341 344 255 246 257 235 239 223 207 200 216 229 224 237 238 232 220 221 208 199 206 207 195 194 163 168 146 125 80 78 58 59 67 101 102 98 84
22 57 54 58 69 52 279 119 293 298 281 304 346 1 328 243 237 236 240 206 188 313 313 242 242 246 211 217 221 226 215 203 203 207 205 196 176 161 143 98 66 82 77 80 80 101 104 75 64
58 51 4 14 14 228 228 60 219 267 286 273 292 35 30 172 199 211 219 210 268 281 254 238 245 242 236 216 216 218 222 216 217 217 211 201 187 171 156 116 55 102 79 90 72 84 134 113 76
8 117 140 143 208 266 333 143 246 227 280 270 94 74 54 15 252 243 239 239 249 234 243 225 243 247 219 212 213 217 218 219 222 223 216 209 194 171 167 160 143 273 111 96 97 71 122 127 89
43 41 166 105 359 60 285 272 301 226 251 266 148 130 135 158 230 241 249 244 220 230 226 226 246 233 221 214 212 213 213 226 221 212 217 210 209 209 192 192 223 290 249 173 134 87 85 133 104
96 171 40 11 123 299 299 291 249 200 250 267 167 168 149 104 269 245 252 245 232 244 258 249 239 238 222 213 212 218 221 221 211 213 217 215 221 217 213 222 234 289 248 211 216 147 101 125 109
350 23 51 116 120 159 206 272 220 235 203 226 232 197 93 24 334 279 252 236 264 277 268 244 235 235 229 219 220 223 223 224 219 215 222 225 225 226 224 236 233 261 233 216 215 189 207 211 273
54 97 104 110 238 132 140 270 276 251 178 224 210 179 198 44 11 286 272 260 252 252 235 246 246 241 237 231 227 228 226 223 218 219 225 226 228 225 233 241 247 247 225 250 238 223 211 253 264